User: anonymous   Login
Location: Muenchen
(48.1800°N, 11.5800°E)
Time: 08:38:06
(UTC+02:00)
Language:

Cosmos 2233 Rocket - Orbit

View from above orbital plane
View from above orbital plane
View from above satellite
View from above satellite

Ground track
Ground track

The orbit data is extracted from the following two-line orbital elements,

1 22488U 93008B   15214.56595359  .00000152  00000-0  13733-3 0  9992
2 22488 082.9402 227.8845 0024938 347.1722 124.4524 13.77674372129998
Epoch (UTC): 02 August 2015 13:34:58
Eccentricity: 0.0024938
inclination: 82.9402°
perigee height: 954 km
apogee height: 990 km
right ascension of ascending node: 227.8845°
argument of perigee: 347.1722°
revolutions per day: 13.77674372
mean anomaly at epoch: 124.4524°
orbit number at epoch: 12999

The dashed part of the orbit path shows where the satellite is in the earth's shadow,  

DLR